Regional Weather Roundup
Issued by NWS

Home | Current Version | Previous Version | Graphics & Text | Print | Product List | Glossary On
Versions: 1 2 3 4 5 6 7 8 9 10 11 12 13 14 15 16 17 18 19 20 21 22 23 24 25 26 27 28 29 30 31 32 33 34 35 36 37 38 39 40 41 42 43 44 45 46 47 48 49 50
000
ASUS44 KMEG 291510
RWRTN
TENNESSEE HOURLY STATE WEATHER ROUNDUP
NATIONAL WEATHER SERVICE MEMPHIS TN
1000 AM CDT WED OCT 29 2014

TNZ002-004-019-021-049-052-054-088>092-291600-
WEST TENNESSEE

CITY           SKY/WX    TMP DP  RH WIND       PRES   REMARKS
MEMPHIS INTL   SUNNY     58  50  75 CALM      30.20S
NWS MEMPHIS      N/A     55 N/A N/A MISG        N/A
JACKSON        SUNNY     56  49  77 CALM      30.19S
DYERSBURG      SUNNY     54  45  71 CALM      30.21S
UNION CITY     SUNNY     54  52  94 SW6       30.18S
PARIS          SUNNY     52  48  87 SW5       30.19R
HUNTINGDON     SUNNY     52  49  89 CALM      30.19R
LEXINGTON      SUNNY     54  50  87 CALM      30.18R
SAVANNAH       SUNNY     55  55 100 N3        30.19S
$$

TNZ008-025-027-028-033-062-065-066-291600-
NORTH MIDDLE TENNESSEE

CITY           SKY/WX    TMP DP  RH WIND       PRES   REMARKS
NASHVILLE      MOSUNNY   54  50  86 CALM      30.18R
CLARKSVILLE    SUNNY     53  51  93 SW5       30.17S
SMYRNA         MOSUNNY   58  49  72 CALM      30.18S
COOKEVILLE     CLOUDY    55  50  82 CALM      30.15S
CROSSVILLE     CLOUDY    51  43  74 NE5       30.14F
ROCKWOOD       CLOUDY    48  47  97 CALM      30.12R
$$

TNZ061-075-076-078-094-096-097-291600-
SOUTH MIDDLE TENNESSEE

CITY           SKY/WX    TMP DP  RH WIND       PRES   REMARKS
FAYETTEVILLE   PTSUNNY   52  46  82 NE10      30.14S
TULLAHOMA      CLOUDY    54  46  76 N6        30.16R
WINCHESTER     CLOUDY    54  48  82 SE3       30.14F
MCMINNVILLE    PTSUNNY   54  54 100 CALM      30.15S
COLUMBIA       SUNNY     57  55  94 CALM      30.16S
SHELBYVILLE    SUNNY     55  52  88 NE7       30.17R
$$

TNZ017-018-042-046-047-291600-
NORTHEAST TENNESSEE

CITY           SKY/WX    TMP DP  RH WIND       PRES   REMARKS
TRI CITIES     CLOUDY    52  49  89 NW7       30.12R
ELIZABETHTON   CLOUDY    50  48  93 W9        30.10R
$$

TNZ012-013-036-069-073-074-291600-
CENTRAL EAST TENNESSEE

CITY           SKY/WX    TMP DP  RH WIND       PRES   REMARKS
KNOXVILLE      CLOUDY    52  49  89 N6        30.12R
OAK RIDGE      CLOUDY    53  49  86 CALM      30.15S
GATLINBURG     CLOUDY    50  48  93 NW3       30.13R
MORRISTOWN     CLOUDY    52  48  87 N6        30.13R
$$

TNZ083-085-099-291600-
SOUTHEAST TENNESSEE

CITY           SKY/WX    TMP DP  RH WIND       PRES   REMARKS
CHATTANOOGA    CLOUDY    54  49  83 N13G23    30.14R
$$

SKY/WX REPORTED AS FAIR MEANS FEW OR NO CLOUDS BELOW
12 THOUSAND FEET.




USA.gov is the U.S. government's official web portal to all federal, state and local government web resources and services.